Weather History for Lancaster, OH

Change the Weather History Date:

Tuesday, September 17, 2013

  Actual Average Record
Temperature  
Mean Temperature 59 °F -  
Max Temperature 73 °F 75 °F 95 °F (1955)
Min Temperature 45 °F 51 °F 31 °F (1959)
Degree Days  
Heating Degree Days 6    
Growing Degree Days 9 (Base 50)    
Moisture  
Dew Point 50 °F    
Average Humidity 77    
Maximum Humidity 97    
Minimum Humidity 48    
Precipitation  
Precipitation 0.00 in - - ()
Sea Level Pressure  
Sea Level Pressure 30.30 in    
Wind  
Wind Speed 2 mph (ENE)    
Max Wind Speed 8 mph    
Max Gust Speed -    
Visibility 9 miles    
Events      
Averages and records for this station are not official NWS values.
T = Trace of Precipitation, MM = Missing Value Source: NWS Daily Summary

Daily Weather History Graph

Daily Weather History Graph

Search for Another Location

Airport:

Trip Planner

Search our weather history database for the weather conditions in past years. The results will help you decide how hot, cold, wet, or windy it might be!

Date:

Astronomy

Sep. 17, 2013 Rise Set
Actual Time 7:13 AM EDT 7:35 PM EDT
Civil Twilight 6:46 AM EDT 8:02 PM EDT
Nautical Twilight 6:14 AM EDT 8:34 PM EDT
Astronomical Twilight 5:42 AM EDT 9:06 PM EDT
Moon 6:21 PM EDT (9/17) 5:07 AM EDT (9/17)
Length of Visible Light 13h 15m
Length of Day
12h 21m
Waxing Gibbous, 96% of the Moon is Illuminated
Sep 17
Waxing Gibbous
Sep 19
Full
Sep 26
Last Quarter
Oct 4
New
Oct 11
First Quarter

Hourly Weather History & Observations

Time (EDT) Temp. Windchill Dew Point Humidity Pressure Visibility Wind Dir Wind Speed Gust Speed Precip Events Conditions
12:53 AM 50.0 °F - 48.0 °F 93% 30.33 in 10.0 mi Calm Calm - N/A   Clear
1:53 AM 50.0 °F - 46.9 °F 89% 30.34 in 10.0 mi Calm Calm - N/A   Clear
2:53 AM 46.9 °F - 46.0 °F 97% 30.34 in 10.0 mi Calm Calm - N/A   Clear
3:53 AM 46.0 °F 44.8 °F 45.0 °F 96% 30.35 in 10.0 mi North 3.5 mph - N/A   Clear
4:53 AM 45.0 °F - 44.1 °F 97% 30.35 in 7.0 mi Calm Calm - N/A   Clear
5:53 AM 45.0 °F - 44.1 °F 97% 30.35 in 3.0 mi Calm Calm - N/A   Clear
6:53 AM 46.0 °F - 45.0 °F 96% 30.35 in 6.0 mi Calm Calm - N/A   Clear
7:53 AM 46.9 °F - 45.0 °F 93% 30.36 in 5.0 mi Calm Calm - N/A   Clear
8:53 AM 54.0 °F - 51.1 °F 90% 30.36 in 9.0 mi NE 3.5 mph - N/A   Clear
9:53 AM 57.9 °F - 51.1 °F 78% 30.36 in 10.0 mi ENE 4.6 mph - N/A   Clear
10:53 AM 62.1 °F - 51.1 °F 67% 30.36 in 10.0 mi Variable 4.6 mph - N/A   Clear
11:53 AM 66.0 °F - 52.0 °F 60% 30.35 in 10.0 mi Variable 3.5 mph - N/A   Clear
12:53 PM 70.0 °F - 52.0 °F 53% 30.33 in 10.0 mi SE 8.1 mph - N/A   Clear
1:53 PM 70.0 °F - 51.1 °F 51% 30.31 in 10.0 mi Variable 4.6 mph - N/A   Clear
2:53 PM 71.1 °F - 52.0 °F 51% 30.29 in 10.0 mi Calm Calm - N/A   Scattered Clouds
3:53 PM 72.0 °F - 52.0 °F 49% 30.26 in 10.0 mi Variable 3.5 mph - N/A   Partly Cloudy
4:53 PM 73.0 °F - 52.0 °F 48% 30.24 in 10.0 mi ENE 8.1 mph - N/A   Clear
5:53 PM 70.0 °F - 51.1 °F 51% 30.24 in 10.0 mi ENE 8.1 mph - N/A   Clear
6:53 PM 69.1 °F - 53.1 °F 57% 30.23 in 10.0 mi East 6.9 mph - N/A   Clear
7:53 PM 62.1 °F - 54.0 °F 75% 30.22 in 10.0 mi ENE 4.6 mph - N/A   Clear
8:53 PM 55.9 °F - 52.0 °F 87% 30.23 in 10.0 mi Calm Calm - N/A   Clear
9:53 PM 57.0 °F - 52.0 °F 83% 30.22 in 10.0 mi Calm Calm - N/A   Clear
10:53 PM 54.0 °F - 51.1 °F 90% 30.23 in 10.0 mi Calm Calm - N/A   Clear
11:53 PM 52.0 °F - 50.0 °F 93% 30.22 in 10.0 mi Calm Calm - N/A   Clear